User: anonymous   Login
Location: Skalnate Pleso
(49.1889°N, 20.2450°E)
Time: 03:24:34
(UTC+01:00)
Language:

COSMO-SKYMED 1 - Orbit

View from above orbital plane
View from above orbital plane
View from above satellite
View from above satellite

Ground track
Ground track

The orbit data is extracted from the following two-line orbital elements,

1 31598U 07023A   20018.79436358 -.00000230  00000-0 -22365-4 0  9993
2 31598  97.8845 204.1338 0001452  89.5426 270.5969 14.82155279682510
Epoch (UTC): 18 January 2020 19:03:53
Eccentricity: 0.0001452
inclination: 97.8845°
perigee height: 621 km
apogee height: 623 km
right ascension of ascending node: 204.1338°
argument of perigee: 89.5426°
revolutions per day: 14.82155279
mean anomaly at epoch: 270.5969°
orbit number at epoch: 68251

The dashed part of the orbit path shows where the satellite is in the earth's shadow,  

DLR